Simultaneous Nadir Overpasses (SNOs) Predictions

Prediction of SNOs between AQUA and NPP Satellite Orbit:

Table of predicted SNOs for the next 14.0 days since TLE Epoch: 1/26/2013
Index Date (AQUA) Time (AQUA) Lat,Lon (AQUA) SZA (AQUA ) Date (NPP) Time (NPP) Lat,Lon (NPP) SZA (NPP ) Distance(km) Time Diff (sec)
1 01/26/2013 23:27:18 77.02, 70.61 114.72 01/26/2013 23:26:53 77.03, 70.68 114.72 1.98 25
2 01/27/2013 00:16:30 -77.73,-118.91 66.14 01/27/2013 00:17:22 -77.74,-118.83 66.21 2.21 52
3 01/29/2013 14:58:53 -62.78, -4.63 51.57 01/29/2013 14:57:40 -63.02, -6.12 51.16 80.31 73
4 01/29/2013 15:43:52 77.12,-173.16 113.94 01/29/2013 15:43:50 77.12,-173.19 113.95 0.80 2
5 01/29/2013 16:32:30 -79.25, 4.95 68.82 01/29/2013 16:33:44 -79.15, 5.34 68.92 13.41 74
6 02/01/2013 07:11:24 -76.46, 132.66 66.00 02/01/2013 07:10:19 -76.45, 132.64 65.93 0.65 65
7 02/01/2013 08:00:32 77.29, -56.67 113.02 02/01/2013 08:00:44 77.29, -56.67 113.01 0.10 12
8 02/03/2013 23:28:18 -76.43,-111.66 66.71 02/03/2013 23:27:19 -76.42,-111.73 66.64 1.74 59
9 02/04/2013 00:17:26 77.27, 59.01 112.30 02/04/2013 00:17:44 77.26, 58.93 112.30 1.96 18
10 02/06/2013 15:45:17 -76.57, 4.56 67.66 02/06/2013 15:44:15 -76.57, 4.59 67.62 0.73 62
11 02/06/2013 16:34:27 77.31, 174.94 111.45 02/06/2013 16:34:42 77.31, 174.93 111.44 0.25 15




NCC Satellite Simultaneous Nadir Overpasses (SNOs) Prediction Service
